Location: Bosdarros
(43.2167°N, 0.3667°W)
Time: 11:18:37
(UTC+00:00)

FENGYUN 1C DEB - Pass Details

Date: 29 October 2021
Orbit: 805 x 871 km, 98.8° (Epoch: 26 November)

Event Time Altitude Azimuth Distance (km) Brightness Sun altitude
Exits shadow 19:28:50 83° 258° (WSW) 821 ? -28.2°
Drops below altitude 10° 19:34:11 10° 345° (NNW) 2,416 ? -29.1°
Sets 19:36:33 0° 346° (NNW) 3,360 ? -29.5°
